This demonstration page uses our WeatherBlox Daily Observations layout. Learn more.

Left ArrowRight Arrow

Hourly Observations for June 12, 2016

Temp ( °F °C ) Dew Point ( °F °C ) Humidity (%) Winds ( mph kmh ) Pressure ( in mb ) Visibility ( mi km ) Precip ( " mm )
12:54 am 00:54 Clear 80 26.7 66 18.9 62 62 S 13 20 29.95 1014 10 16.0934 0 0
1:54 am 01:54 Clear 78 25.6 66 18.9 67 67 S 10 17 29.96 1015 10 16.0934 0 0
2:54 am 02:54 Clear 76 24.4 67 19.4 74 74 S 8 13 29.96 1015 10 16.0934 0 0
3:54 am 03:54 Clear 75 23.9 66 18.9 74 74 S 5 7 29.97 1015 10 16.0934 0 0
4:54 am 04:54 Clear 75 23.9 67 19.4 76 76 SSE 8 13 29.97 1015 10 16.0934 0 0
5:54 am 05:54 Clear 72 22.2 66 18.9 82 82 S 5 7 29.96 1015 10 16.0934 0 0
6:54 am 06:54 Sunny 74 23.3 68 20 82 82 S 7 11 29.97 1015 10 16.0934 0 0
7:54 am 07:54 Sunny 78 25.6 69 20.6 74 74 S 13 20 29.98 1015 10 16.0934 0 0
8:54 am 08:54 Sunny 82 27.8 67 19.4 60 60 SW 10 17 29.99 1016 10 16.0934 0 0
9:54 am 09:54 Sunny 85 29.4 68 20 57 57 S 8 13 29.99 1016 10 16.0934 0 0
10:54 am 10:54 Sunny 88 31.1 67 19.4 50 50 S 12 19 29.98 1015 10 16.0934 0 0
11:54 am 11:54 Sunny 90 32.2 66 18.9 45 45 S 13 20 29.98 1015 10 16.0934 0 0
12:54 pm 12:54 Sunny 93 33.9 67 19.4 42 42 SSW 14 22 29.98 1015 10 16.0934 0 0
1:54 pm 13:54 Sunny 94 34.4 66 18.9 40 40 SSE 12 19 29.96 1015 10 16.0934 0 0
2:54 pm 14:54 Mostly Sunny 95 35 65 18.3 37 37 SSW 14 22 29.95 1014 10 16.0934 0 0
3:54 pm 15:54 Sunny 95 35 66 18.9 39 39 S 14 22 29.93 1014 10 16.0934 0 0
4:54 pm 16:54 Partly Cloudy 95 35 66 18.9 39 39 S 17 28 29.91 1013 10 16.0934 0 0
5:54 pm 17:54 Mostly Sunny 92 33.3 64 17.8 40 40 S 15 24 29.91 1013 10 16.0934 0 0
6:54 pm 18:54 Mostly Sunny 92 33.3 64 17.8 40 40 S 12 19 29.91 1013 10 16.0934 0 0
7:54 pm 19:54 Sunny 90 32.2 65 18.3 44 44 S 8 13 29.92 1013 10 16.0934 0 0
8:54 pm 20:54 Sunny 87 30.6 65 18.3 48 48 S 5 7 29.93 1013 10 16.0934 0 0
9:54 pm 21:54 Clear 83 28.3 66 18.9 57 57 SSE 5 7 29.94 1014 10 16.0934 0 0
10:54 pm 22:54 Clear 79 26.1 66 18.9 65 65 SSE 7 11 29.94 1014 10 16.0934 0 0
11:54 pm 23:54 Clear 78 25.6 67 19.4 69 69 S 9 15 29.94 1014 10 16.0934 0 0

Powered by AerisWeather